FW0598 Weather Reports


Display with metric or nautical units.
time (UTC)temp
F
wind
direction
speed
MPH
gust
MPH
rain 1hr
in
rain 24hr
in
rain mn
in
humidity
%
barometer
mb
20260510081618 51 58 0.0 0.0 0.00 0.00 0.00 78 1021.0
20260510080035 53 58 0.0 0.0 0.00 0.00 0.00 79 1020.7
20260510074535 54 58 0.0 0.0 0.00 0.00 0.00 79 1020.5
20260510073014 56 58 0.0 0.0 0.00 0.00 0.00 78 1020.2
20260510071514 58 58 0.0 0.0 0.00 0.00 0.00 79 1020.0
20260510070057 59 58 0.0 0.0 0.00 0.00 0.00 78 1019.7
20260510064554 60 59 0.0 0.0 0.00 0.00 0.00 76 1019.4
20260510063037 60 36 0.0 0.0 0.00 0.00 0.00 74 1019.2
20260510061538 61 223 0.0 0.0 0.00 0.00 0.00 73 1019.0
20260510060040 61 123 0.0 2.0 0.00 0.00 0.00 73 1018.7
20260510054518 62 23 0.0 11.0 0.00 0.00 0.00 68 1018.6
20260510053109 63 13 0.0 6.0 0.00 0.00 0.00 67 1018.5
20260510051649 63 13 0.0 2.0 0.00 0.00 0.00 66 1018.2
20260510050040 64 61 0.0 1.0 0.00 0.00 0.00 64 1018.2
20260510044542 65 19 0.0 0.0 0.00 0.00 0.00 63 1018.0
20260510043022 65 41 0.0 7.0 0.00 0.00 0.00 62 1017.9
20260510041525 66 167 0.0 1.0 0.00 0.00 0.00 59 1017.9
20260510040101 65 38 0.0 0.0 0.00 0.00 0.00 59 1017.9
20260510034558 65 168 0.0 0.0 0.00 0.00 0.00 62 1017.9
20260510033041 65 19 0.0 0.0 0.00 0.00 0.00 62 1018.0
20260510031607 65 135 0.0 0.0 0.00 0.00 0.00 62 1018.1
20260510030022 65 60 0.0 0.0 0.00 0.00 0.00 64 1018.2
20260510024520 65 16 0.0 0.0 0.00 0.00 0.00 65 1018.3
20260510023034 65 30 0.0 0.0 0.00 0.00 0.00 64 1018.5
20260510021518 65 30 0.0 0.0 0.00 0.00 0.00 65 1018.8
20260510020012 65 167 0.0 6.0 0.00 0.00 0.00 67 1019.0
20260510014508 63 43 0.0 4.0 0.00 0.00 0.00 70 1019.2
20260510013010 62 165 1.0 9.0 0.00 0.00 0.00 73 1019.4
20260510011625 60 60 0.0 0.0 0.00 0.00 0.00 80 1019.5
20260510010047 57 60 0.0 0.0 0.00 0.00 0.00 89 1019.6
20260510004534 55 60 0.0 0.0 0.00 0.00 0.00 94 1019.9
20260510003010 52 60 0.0 0.0 0.00 0.00 0.00 96 1020.1
20260510001506 50 60 0.0 0.0 0.00 0.00 0.00 96 1020.0
20260510000048 48 60 0.0 0.0 0.00 0.00 0.00 96 1020.1
20260509234540 46 60 0.0 0.0 0.00 0.00 0.00 96 1020.1
20260509233018 44 60 0.0 0.0 0.00 0.00 0.00 96 1020.1
20260509231515 42 60 0.0 0.0 0.00 0.00 0.00 96 1020.2
20260509230055 40 60 0.0 0.0 0.00 0.00 0.00 95 1020.2
20260509224549 38 60 0.0 0.0 0.00 0.00 0.00 94 1020.3
20260509223029 37 60 0.0 0.0 0.00 0.00 0.00 94 1020.1
20260509221528 36 60 0.0 0.0 0.00 0.00 0.00 93 1019.9
20260509220002 36 60 0.0 0.0 0.00 0.00 0.00 93 1019.7
20260509214558 35 60 0.0 0.0 0.00 0.00 0.00 93 1019.5
20260509213049 0 0.0 0.0 0.00 0.00 0.00 1019.3
20260509211603 0 0.0 0.0 0.00 0.00 0.00 1019.1
20260509210012 0 0.0 0.0 0.00 0.00 0.00 1018.9
20260509204506 0 0.0 0.0 0.00 0.00 0.00 1018.7
20260509203055 0 0.0 0.0 0.00 0.00 0.00 1018.7
20260509201540 0 0.0 0.0 0.00 0.00 0.00 1018.4
20260509200019 0 0.0 0.0 0.00 0.00 0.00 1018.2
20260509194514 0 0.0 0.0 0.00 0.00 0.00 1018.1
20260509193053 0 0.0 0.0 0.00 0.00 0.00 1017.9
20260509191549 34 60 0.0 0.0 0.00 0.00 0.00 92 1017.7
20260509190028 34 60 0.0 0.0 0.00 0.00 0.00 91 1017.5
20260509184527 34 60 0.0 0.0 0.00 0.00 0.00 91 1017.4
20260509183013 34 60 0.0 0.0 0.00 0.00 0.00 91 1017.2
20260509181506 34 60 0.0 0.0 0.00 0.00 0.00 91 1017.0
20260509180048 34 60 0.0 0.0 0.00 0.00 0.00 91 1016.8
20260509174551 34 60 0.0 0.0 0.00 0.00 0.00 91 1016.8
20260509173027 34 60 0.0 0.0 0.00 0.00 0.00 90 1016.8
20260509171527 34 60 0.0 0.0 0.00 0.00 0.00 90 1016.8
20260509170008 34 60 0.0 0.0 0.00 0.00 0.00 90 1016.7
20260509164506 33 60 0.0 0.0 0.00 0.00 0.00 90 1016.7
20260509163058 33 60 0.0 0.0 0.00 0.00 0.00 90 1016.7
20260509161548 33 60 0.0 0.0 0.00 0.00 0.00 89 1016.6
20260509160029 33 60 0.0 0.0 0.00 0.00 0.00 89 1016.6
20260509154527 33 60 0.0 0.0 0.00 0.00 0.00 89 1016.6
20260509153017 33 60 0.0 0.0 0.00 0.00 0.00 88 1016.6
20260509151506 34 60 0.0 0.0 0.00 0.00 0.00 88 1016.7
20260509150105 34 60 0.0 0.0 0.00 0.00 0.00 88 1016.7
20260509144546 34 60 0.0 0.0 0.00 0.00 0.00 88 1016.7
20260509143047 35 60 0.0 0.0 0.00 0.00 0.00 87 1016.7
20260509141529 35 59 0.0 0.0 0.00 0.00 0.00 87 1016.5
20260509140022 35 60 0.0 0.0 0.00 0.00 0.00 87 1016.5
20260509134502 36 60 0.0 0.0 0.00 0.00 0.00 87 1016.6
20260509133106 36 60 0.0 0.0 0.00 0.00 0.00 86 1016.7
20260509131542 36 60 0.0 0.0 0.00 0.00 0.00 86 1016.7
20260509130044 37 60 0.0 0.0 0.00 0.00 0.00 86 1016.6
20260509124522 37 60 0.0 0.0 0.00 0.00 0.00 86 1016.6
20260509123021 38 59 0.0 0.0 0.00 0.00 0.00 86 1016.7
20260509121503 38 60 0.0 0.0 0.00 0.00 0.00 86 1016.7
20260509120009 38 60 0.0 0.0 0.00 0.00 0.00 86 1016.7
20260509114553 39 60 0.0 0.0 0.00 0.00 0.00 86 1016.7
20260509113044 39 60 0.0 0.0 0.00 0.00 0.00 85 1016.5
20260509111522 40 60 0.0 0.0 0.00 0.00 0.00 85 1016.2
20260509110020 40 60 0.0 0.0 0.00 0.00 0.00 85 1016.1
20260509104501 41 60 0.0 0.0 0.00 0.00 0.00 85 1016.0
20260509103103 42 60 0.0 0.0 0.00 0.00 0.00 85 1015.9
20260509101543 42 60 0.0 0.0 0.00 0.00 0.00 85 1015.7
20260509100044 43 60 0.0 0.0 0.00 0.00 0.00 84 1015.6
20260509094523 43 60 0.0 0.0 0.00 0.00 0.00 83 1015.7
20260509093022 44 60 0.0 0.0 0.00 0.00 0.00 82 1015.6
20260509091504 45 60 0.0 0.0 0.00 0.00 0.00 82 1015.5
20260509090002 46 60 0.0 0.0 0.00 0.00 0.00 82 1015.2
20260509084548 47 60 0.0 0.0 0.00 0.00 0.00 81 1015.0